Precipitable_Water
1.37 1.32 1.25 1.19 1.16 1.15 1.12 1.08 1.08 1.06 0.98 0.85 0.81 0.80 0.78 0.80 0.83 0.84 0.85 0.87 0.86 0.85 0.83 0.82 0.82 0.81 0.81 0.81 0.81 0.78 0.75 0.72 0.70 0.69 0.67 0.65 0.63 0.62 0.61 0.60 0.60 0.59
1.34 1.30 1.25 1.19 1.15 1.15 1.13 1.10 1.09 1.06 0.95 0.86 0.85 0.85 0.83 0.82 0.84 0.86 0.85 0.84 0.83 0.82 0.83 0.82 0.82 0.81 0.81 0.79 0.78 0.73 0.71 0.69 0.66 0.69 0.64 0.63 0.62 0.61 0.59 0.58 0.57 0.56
1.32 1.28 1.22 1.16 1.12 1.09 1.08 1.09 1.09 1.06 0.93 0.86 0.87 0.83 0.82 0.84 0.85 0.86 0.85 0.82 0.80 0.81 0.80 0.79 0.79 0.79 0.79 0.78 0.75 0.72 0.69 0.67 0.64 0.66 0.64 0.62 0.62 0.59 0.59 0.57 0.54 0.51
1.29 1.27 1.20 1.15 1.10 1.06 1.06 1.05 1.07 1.03 0.92 0.85 0.82 0.84 0.84 0.85 0.85 0.85 0.84 0.81 0.79 0.78 0.78 0.77 0.77 0.78 0.78 0.77 0.74 0.71 0.70 0.67 0.65 0.64 0.62 0.62 0.61 0.58 0.55 0.53 0.50 0.46
1.27 1.23 1.17 1.11 1.08 1.06 1.05 1.03 1.04 0.97 0.87 0.85 0.84 0.86 0.85 0.85 0.84 0.84 0.80 0.78 0.78 0.77 0.77 0.76 0.77 0.77 0.78 0.75 0.73 0.70 0.68 0.65 0.63 0.60 0.58 0.57 0.57 0.54 0.50 0.47 0.42 0.38
1.27 1.21 1.13 1.08 1.05 1.03 1.01 1.02 1.02 0.93 0.86 0.82 0.84 0.86 0.86 0.87 0.86 0.82 0.78 0.77 0.77 0.77 0.77 0.77 0.77 0.78 0.77 0.75 0.73 0.69 0.66 0.62 0.58 0.53 0.52 0.52 0.51 0.48 0.44 0.39 0.35 0.32
1.20 1.14 1.09 1.06 1.03 1.02 1.01 1.04 0.96 0.88 0.86 0.86 0.86 0.84 0.86 0.85 0.83 0.79 0.78 0.77 0.76 0.75 0.75 0.76 0.76 0.76 0.76 0.74 0.70 0.66 0.64 0.60 0.53 0.45 0.43 0.44 0.42 0.39 0.38 0.35 0.32 0.30
1.15 1.12 1.08 1.05 1.02 1.01 1.03 0.99 0.90 0.89 0.88 0.88 0.85 0.85 0.85 0.81 0.80 0.78 0.78 0.78 0.75 0.73 0.72 0.73 0.73 0.74 0.74 0.71 0.67 0.63 0.60 0.56 0.47 0.38 0.34 0.34 0.35 0.32 0.33 0.33 0.32 0.29
1.14 1.08 1.05 1.02 0.99 1.00 0.98 0.93 0.91 0.89 0.89 0.86 0.84 0.83 0.82 0.80 0.79 0.78 0.78 0.77 0.75 0.73 0.72 0.71 0.71 0.71 0.72 0.69 0.65 0.62 0.57 0.49 0.43 0.35 0.31 0.30 0.30 0.32 0.32 0.32 0.30 0.30
1.10 1.07 1.03 1.00 0.97 0.97 0.93 0.91 0.89 0.87 0.86 0.84 0.84 0.83 0.80 0.80 0.80 0.80 0.79 0.77 0.75 0.72 0.71 0.71 0.71 0.71 0.70 0.67 0.63 0.60 0.54 0.46 0.41 0.36 0.33 0.31 0.32 0.33 0.34 0.33 0.32 0.31
1.08 1.06 1.01 0.99 0.97 0.93 0.91 0.90 0.88 0.85 0.84 0.84 0.84 0.83 0.82 0.81 0.80 0.81 0.80 0.77 0.74 0.72 0.70 0.69 0.69 0.69 0.65 0.60 0.57 0.54 0.51 0.45 0.41 0.37 0.34 0.33 0.34 0.35 0.35 0.35 0.34 0.33
1.07 1.06 1.02 0.99 0.95 0.92 0.90 0.89 0.87 0.84 0.84 0.86 0.86 0.84 0.83 0.83 0.82 0.81 0.79 0.76 0.74 0.72 0.70 0.68 0.68 0.67 0.62 0.58 0.54 0.51 0.47 0.42 0.39 0.36 0.35 0.34 0.34 0.35 0.35 0.36 0.36 0.35
1.06 1.05 1.04 0.99 0.94 0.93 0.92 0.90 0.85 0.85 0.86 0.87 0.88 0.86 0.84 0.82 0.81 0.79 0.78 0.76 0.73 0.71 0.69 0.67 0.65 0.64 0.59 0.54 0.50 0.47 0.42 0.37 0.34 0.33 0.33 0.33 0.35 0.37 0.37 0.38 0.38 0.38
1.06 1.07 1.04 0.98 0.96 0.95 0.93 0.90 0.87 0.88 0.90 0.91 0.90 0.86 0.84 0.82 0.81 0.79 0.76 0.74 0.72 0.70 0.68 0.66 0.63 0.59 0.54 0.50 0.48 0.45 0.41 0.36 0.33 0.30 0.30 0.31 0.32 0.35 0.36 0.37 0.38 0.39
1.07 1.06 1.04 1.00 0.99 0.97 0.93 0.90 0.90 0.93 0.93 0.91 0.90 0.88 0.87 0.85 0.82 0.78 0.73 0.71 0.71 0.69 0.65 0.63 0.59 0.53 0.49 0.48 0.46 0.42 0.39 0.34 0.32 0.29 0.28 0.28 0.30 0.33 0.35 0.37 0.38 0.39
1.05 1.05 1.02 1.02 0.99 0.95 0.93 0.94 0.95 0.94 0.92 0.91 0.90 0.90 0.87 0.83 0.79 0.74 0.72 0.71 0.68 0.64 0.60 0.57 0.52 0.47 0.45 0.44 0.42 0.38 0.35 0.33 0.31 0.28 0.27 0.26 0.28 0.30 0.33 0.36 0.38 0.38
1.05 1.04 1.04 1.01 1.00 1.00 1.00 0.99 0.96 0.94 0.93 0.92 0.91 0.87 0.81 0.78 0.75 0.73 0.72 0.69 0.64 0.58 0.53 0.49 0.45 0.42 0.42 0.41 0.39 0.37 0.34 0.32 0.29 0.27 0.26 0.27 0.28 0.29 0.31 0.34 0.36 0.37
1.06 1.04 1.03 1.03 1.03 1.02 1.01 1.00 0.98 0.95 0.93 0.90 0.85 0.80 0.77 0.76 0.72 0.69 0.66 0.63 0.58 0.52 0.47 0.42 0.38 0.37 0.37 0.37 0.37 0.35 0.33 0.30 0.28 0.26 0.26 0.26 0.27 0.28 0.30 0.33 0.33 0.34
1.07 1.03 1.03 1.03 1.04 1.03 1.01 0.99 0.95 0.92 0.87 0.82 0.80 0.80 0.77 0.73 0.69 0.65 0.61 0.58 0.51 0.43 0.37 0.33 0.32 0.33 0.33 0.33 0.32 0.31 0.30 0.28 0.27 0.26 0.25 0.25 0.25 0.26 0.28 0.30 0.31 0.31
1.06 1.04 1.03 1.03 1.02 1.03 1.01 0.98 0.93 0.88 0.86 0.85 0.83 0.80 0.74 0.70 0.65 0.61 0.57 0.52 0.45 0.40 0.36 0.33 0.31 0.31 0.30 0.29 0.29 0.29 0.29 0.28 0.27 0.26 0.25 0.24 0.24 0.24 0.25 0.25 0.26 0.27
1.06 1.04 1.02 1.00 1.00 1.01 0.99 0.95 0.91 0.89 0.87 0.85 0.81 0.76 0.70 0.65 0.60 0.56 0.52 0.47 0.43 0.42 0.39 0.37 0.34 0.33 0.31 0.30 0.30 0.30 0.29 0.28 0.26 0.25 0.25 0.24 0.24 0.24 0.24 0.24 0.24 0.25
1.05 1.04 1.01 0.98 0.96 0.96 0.95 0.93 0.91 0.89 0.85 0.83 0.79 0.73 0.67 0.62 0.58 0.53 0.47 0.44 0.43 0.43 0.41 0.38 0.39 0.38 0.36 0.32 0.30 0.30 0.29 0.27 0.26 0.24 0.23 0.23 0.24 0.24 0.25 0.25 0.25 0.25
1.06 1.03 0.99 0.96 0.96 0.95 0.94 0.92 0.88 0.86 0.84 0.82 0.75 0.68 0.61 0.56 0.52 0.49 0.45 0.42 0.42 0.42 0.40 0.39 0.39 0.40 0.39 0.36 0.33 0.30 0.28 0.26 0.25 0.23 0.23 0.22 0.23 0.24 0.24 0.25 0.26 0.25
1.07 1.03 0.97 0.97 0.97 0.95 0.92 0.89 0.87 0.84 0.81 0.79 0.72 0.62 0.56 0.53 0.50 0.46 0.43 0.43 0.41 0.41 0.41 0.39 0.40 0.42 0.42 0.41 0.38 0.33 0.28 0.25 0.24 0.23 0.22 0.22 0.22 0.23 0.24 0.24 0.25 0.25
1.07 1.04 1.01 1.00 0.97 0.94 0.90 0.86 0.83 0.81 0.79 0.76 0.70 0.60 0.54 0.50 0.46 0.42 0.41 0.42 0.42 0.41 0.43 0.42 0.42 0.44 0.45 0.44 0.41 0.38 0.31 0.26 0.24 0.22 0.21 0.21 0.21 0.21 0.23 0.23 0.23 0.24
1.09 1.05 1.03 1.00 0.95 0.92 0.89 0.86 0.83 0.80 0.76 0.71 0.66 0.58 0.51 0.46 0.42 0.40 0.39 0.40 0.42 0.42 0.44 0.44 0.44 0.46 0.48 0.46 0.43 0.40 0.34 0.26 0.23 0.21 0.20 0.21 0.21 0.21 0.21 0.22 0.23 0.23
Wind_Speed
14 14 14 13 12 12 11 9 8 7 5 5 5 5 5 4 4 4 4 5 6 6 7 8 9 9 10 11 12 13 14 14 14 14 15 15 16 16 17 18 18 18
15 14 14 13 12 11 10 9 8 7 6 5 5 5 5 4 3 4 4 5 6 6 7 8 9 10 11 12 13 13 14 14 14 14 15 15 16 16 17 18 18 18
15 15 14 13 12 11 10 9 8 7 6 6 6 5 4 4 4 4 4 5 6 6 7 8 9 10 11 12 13 13 14 14 14 15 15 15 16 16 17 18 18 18
15 15 14 13 12 11 10 10 9 8 7 6 6 5 4 4 4 4 5 5 6 7 7 8 9 10 11 12 13 13 14 14 15 15 15 15 15 16 17 17 17 18
15 14 14 13 12 11 11 11 10 9 7 7 6 5 5 4 5 5 5 6 6 7 7 8 9 10 11 12 13 14 14 15 15 14 14 15 15 16 16 16 17 17
14 14 14 13 12 12 12 11 10 9 8 7 7 6 5 5 5 5 5 6 6 7 7 8 10 11 12 12 13 14 14 15 15 14 14 15 15 15 15 16 16 17
14 14 14 13 13 13 12 11 10 9 8 7 7 6 6 6 5 5 5 6 7 7 8 9 10 11 12 12 13 14 15 15 15 14 14 14 14 15 15 15 16 17
14 14 14 14 13 12 12 11 10 9 8 7 7 7 7 6 6 6 6 7 7 8 8 9 10 11 11 12 13 14 15 15 14 14 14 14 14 14 14 15 16 16
14 14 14 14 13 12 11 10 10 9 8 7 7 7 7 7 7 7 7 7 8 8 9 10 10 11 12 12 13 14 14 14 14 13 13 13 13 13 14 14 15 16
14 14 14 13 12 12 11 11 10 9 8 8 8 8 8 8 7 7 8 8 8 9 9 10 11 11 12 12 13 13 13 13 13 13 13 13 13 13 14 14 15 16
14 14 13 13 12 12 12 10 9 9 8 8 8 8 9 8 8 8 8 9 9 9 10 10 11 11 12 12 12 13 13 13 13 13 13 13 13 13 13 14 15 16
14 14 13 13 12 12 11 10 9 9 9 9 9 9 9 9 9 9 9 9 9 9 10 10 11 11 12 12 12 12 13 13 13 13 13 13 13 13 13 14 14 15
15 14 13 13 13 13 12 11 10 10 10 10 10 10 10 10 10 9 9 9 9 9 10 10 11 11 12 12 12 13 13 12 12 12 12 13 12 12 13 13 14 15
15 14 13 13 13 13 12 11 11 11 10 10 10 10 10 10 10 10 9 9 9 9 10 10 11 11 12 12 12 12 12 12 12 12 12 12 12 12 12 13 13 14
15 15 14 13 13 13 12 12 12 11 11 11 10 11 11 11 10 10 9 9 9 9 10 11 11 12 12 12 12 12 12 12 11 11 11 11 11 11 12 12 13 13
15 14 14 14 13 13 13 12 12 12 11 11 11 11 11 11 10 9 9 9 9 9 10 11 11 11 11 11 11 11 11 11 11 11 11 11 10 11 11 12 12 13
14 14 14 14 13 13 13 12 12 12 11 11 11 11 10 10 9 9 9 9 9 9 10 10 11 11 10 10 11 11 11 10 10 10 10 10 10 10 11 11 12 13
14 14 14 13 13 13 13 12 12 12 11 11 11 10 10 10 9 9 9 9 9 9 9 10 10 10 10 10 10 10 10 10 9 9 9 9 10 10 10 11 12 12
15 15 14 13 13 13 13 13 12 12 11 11 10 10 10 10 9 9 9 9 9 9 9 9 10 10 9 9 9 8 8 9 9 9 9 9 9 10 10 11 12 12
15 15 15 14 14 14 13 13 13 12 12 11 11 10 10 10 9 9 9 9 9 9 9 9 9 9 8 8 8 7 7 8 8 8 8 9 9 10 11 11 12 12
16 15 15 14 14 14 14 13 13 12 12 11 11 10 10 10 9 9 9 9 9 9 9 9 9 8 8 7 7 7 7 8 8 8 8 8 9 10 11 11 12 12
16 16 15 14 14 14 13 13 13 12 12 12 11 10 10 10 10 10 9 9 9 9 9 9 9 8 8 7 7 7 7 8 8 8 8 8 9 10 11 11 12 12
17 16 14 14 14 14 13 13 13 12 12 12 11 11 11 10 10 10 10 9 9 9 9 9 9 8 8 8 7 7 7 8 8 8 8 8 9 10 11 11 11 12
17 16 15 14 14 14 13 13 13 13 12 12 12 11 11 11 11 10 10 10 10 9 10 10 9 9 8 8 7 7 7 8 8 7 8 8 9 10 10 11 11 12
18 17 16 15 14 14 14 13 13 13 13 12 12 12 11 11 11 11 11 10 10 10 10 10 10 9 9 8 7 7 7 8 8 7 7 8 9 9 10 10 11 12
18 17 16 16 15 14 14 14 13 13 13 12 12 12 12 12 12 12 11 11 11 11 11 11 10 10 9 8 8 7 7 8 8 8 7 8 8 9 9 10 11 12
Wind_Direction
200 201 202 202 203 205 207 212 218 227 237 241 251 269 282 289 293 300 309 316 321 324 330 336 338 340 340 340 339 338 338 339 340 340 341 341 341 340 341 341 340 340
200 201 201 202 204 206 208 213 221 232 240 245 260 276 281 278 281 297 311 317 321 324 330 335 337 339 339 339 339 338 339 340 341 341 340 341 341 341 342 343 343 343
200 200 200 204 207 208 210 218 228 237 244 252 265 272 266 263 277 297 310 317 320 325 331 334 337 339 340 340 339 339 340 341 342 340 339 340 341 343 344 345 345 345
200 201 204 208 211 212 217 225 232 240 248 255 257 254 253 262 279 294 305 316 322 325 329 332 335 338 340 340 339 339 340 342 342 340 339 341 342 344 346 346 347 348
201 205 208 212 214 218 225 229 233 241 247 247 244 244 252 265 279 291 302 314 321 322 324 328 334 337 338 338 338 339 340 342 343 341 340 342 344 345 347 348 349 350
205 209 212 216 220 224 228 231 235 239 238 237 238 244 256 266 275 285 298 309 314 316 320 325 331 335 335 336 338 339 340 341 342 342 342 343 345 347 349 350 351 351
210 213 216 220 224 228 232 234 234 231 229 234 241 249 259 262 265 275 290 301 308 314 319 323 328 332 333 334 337 338 338 339 341 341 342 344 347 349 350 350 351 351
213 215 219 222 225 229 232 228 224 222 227 238 245 251 254 252 256 270 284 296 307 315 321 325 327 329 331 332 334 336 336 337 339 340 342 344 346 349 350 350 350 350
214 217 220 222 224 226 223 217 217 223 233 241 242 243 245 248 258 271 283 294 304 312 319 324 327 328 329 329 330 332 333 335 338 340 342 343 345 348 348 348 348 350
214 217 219 220 221 218 214 213 219 229 235 237 236 238 243 251 263 275 284 293 300 308 315 321 325 327 327 326 327 330 332 334 337 340 341 342 343 345 345 346 347 349
213 216 217 217 216 212 210 215 223 230 232 234 236 240 247 255 267 279 286 291 297 305 313 318 322 324 324 323 325 328 330 332 335 337 339 339 340 342 343 344 345 348
213 216 217 218 215 210 212 219 225 228 230 236 241 244 249 258 270 281 286 289 295 302 310 315 318 320 321 320 321 325 328 331 332 334 336 336 337 339 341 343 346 348
215 217 219 219 214 212 216 223 226 229 234 239 244 248 253 260 271 279 283 287 292 299 306 311 314 317 318 317 319 323 326 329 331 332 334 334 334 337 340 343 346 348
216 218 219 217 213 215 222 226 228 232 237 240 246 253 258 264 270 276 280 283 289 297 303 307 311 313 315 316 319 323 326 328 329 330 333 334 333 336 341 345 346 348
216 218 218 216 216 220 225 227 231 234 237 242 249 256 260 265 269 272 276 280 287 295 301 305 309 311 313 315 318 322 325 325 327 330 332 332 333 336 342 346 347 347
215 217 217 216 219 224 226 228 232 234 238 244 251 255 259 262 266 269 273 278 286 294 300 304 308 310 313 317 319 321 322 322 326 329 330 331 333 338 342 345 346 346
215 217 216 218 223 225 225 227 229 233 239 245 250 254 257 260 263 267 272 278 286 293 299 304 306 309 313 316 319 319 319 320 325 327 329 332 336 339 341 343 344 344
217 217 217 221 226 225 223 224 227 232 239 244 248 252 255 258 263 268 273 279 286 293 299 303 304 307 311 314 316 318 319 321 324 326 329 334 337 339 340 340 341 342
220 218 218 226 229 225 222 222 226 232 238 244 249 252 254 258 264 268 273 280 285 292 298 301 303 307 311 313 314 318 321 322 324 327 331 335 338 339 339 338 338 339
221 219 222 229 228 222 220 223 227 233 239 246 250 251 253 257 262 266 272 278 283 288 293 298 302 305 309 311 313 317 321 322 324 327 331 336 338 339 340 340 339 339
222 221 225 227 222 218 220 223 227 233 240 246 250 250 253 257 261 265 270 275 280 283 286 291 297 299 301 304 307 312 318 320 322 326 330 334 337 338 340 342 342 341
221 221 224 221 216 217 221 224 229 235 240 246 250 251 254 258 262 266 268 272 276 279 281 285 289 291 291 294 300 307 313 317 319 322 327 332 336 338 340 341 342 343
218 220 220 217 216 220 224 227 232 237 242 248 250 251 254 258 261 265 267 269 272 275 277 278 281 282 282 284 292 301 308 312 314 318 324 330 335 337 338 339 342 343
218 219 218 217 220 224 227 230 234 239 244 249 250 249 253 257 261 263 266 268 269 272 274 274 274 275 274 275 283 294 303 306 309 314 321 328 333 335 335 336 340 343
219 221 221 222 225 228 229 231 235 240 246 249 249 251 255 258 261 263 265 266 267 270 272 271 270 271 269 268 275 287 297 301 304 310 319 326 330 332 333 334 337 341
220 223 224 227 229 229 230 234 237 241 244 247 249 253 258 260 262 263 263 264 266 268 271 270 268 268 265 263 269 281 291 297 302 308 316 322 326 329 331 334 337 340